Location: *
(42.3442°N, 9.2072°E)
Time: 10:38:06
(UTC+00:00)

SL-4 R/B - Pass Details

Date: 09 April 2020
Orbit: 428 x 666 km, 51.6° (Epoch: 04 June)

Event Time Altitude Azimuth Distance (km) Brightness Sun altitude
Rises 19:02:13 0° 271° (W) 2,398 6.7 -12.1°
Reaches altitude 10° 19:04:34 10° 285° (WNW) 1,524 5.8 -12.5°
Maximum altitude 19:07:26 25° 343° (NNW) 921 3.7 -13.0°
Drops below altitude 10° 19:10:19 10° 40° (NE) 1,540 4.1 -13.4°
Enters shadow 19:11:41 - 50° (NE) 2,029 4.7 -13.7°
